Weather History for EINN - June, 2013

Change the Weather History Date:

Wednesday, June 12, 2013

  Actual Average Record
Temperature  
Mean Temperature 54 °F -  
Max Temperature 61 °F 65 °F 73 °F (2014)
Min Temperature 47 °F 52 °F 44 °F (2005)
Degree Days  
Heating Degree Days 11    
Growing Degree Days 4 (Base 50)    
Moisture  
Dew Point 51 °F    
Average Humidity 88    
Maximum Humidity 100    
Minimum Humidity 57    
Precipitation  
Precipitation 0.24 in 0.08 in - ()
Sea Level Pressure  
Sea Level Pressure 29.63 in    
Wind  
Wind Speed 6 mph ()    
Max Wind Speed 10 mph    
Max Gust Speed -    
Visibility 5.9 miles    
Events Rain    
Averages and records for this station are not official NWS values.
T = Trace of Precipitation, MM = Missing Value Source: Averaged Metar Reports

Daily Weather History Graph

Daily Weather History Graph

Search for Another Location

Airport or City:

Trip Planner

Search our weather history database for the weather conditions in past years. The results will help you decide how hot, cold, wet, or windy it might be!

Date:

Astronomy

Jun. 12, 2013 Rise Set
Actual Time 5:11 AM IST 9:59 PM IST
Civil Twilight 4:21 AM IST 10:50 PM IST
Nautical Twilight 2:58 AM IST 12:13 AM IST
Astronomical Twilight Sun does not set Sun does not set
Moon 9:01 AM IST (6/12) No Moon Set
Length of Visible Light 18h 28m
Length of Day
16h 48m
Waxing Crescent, 13% of the Moon is Illuminated
Jun 12
Waxing Crescent
Jun 16
First Quarter
Jun 23
Full
Jun 30
Last Quarter
Jul 8
New

Hourly Weather History & Observations

Time (IST) Temp. Dew Point Humidity Pressure Visibility Wind Dir Wind Speed Gust Speed Precip Events Conditions
12:00 AM 50.0 °F 50.0 °F 100% 29.62 in 6.2 mi North 10.4 mph - N/A   Mostly Cloudy
12:30 AM 50.0 °F 50.0 °F 100% 29.62 in 6.2 mi North 10.4 mph - N/A   Mostly Cloudy
1:00 AM 51 °F 51 °F 99% 29.64 in 11 mi North 8.9 mph - -   Partly Cloudy
1:00 AM 51.8 °F 51.8 °F 100% 29.62 in 6.2 mi North 9.2 mph - N/A   Mostly Cloudy
1:30 AM 51.8 °F 50.0 °F 94% 29.62 in 6.2 mi North 8.1 mph - N/A   Mostly Cloudy
2:00 AM 51.8 °F 50.0 °F 94% 29.65 in 6.2 mi NW 5.8 mph - N/A   Mostly Cloudy
2:30 AM 50.0 °F 50.0 °F 100% 29.65 in 6.2 mi NNW 6.9 mph - N/A   Mostly Cloudy
3:00 AM 50.0 °F 50.0 °F 100% 29.65 in 6.2 mi WNW 5.8 mph - N/A   Mostly Cloudy
3:30 AM 51.8 °F 50.0 °F 94% 29.68 in 6.2 mi NW 6.9 mph - N/A   Mostly Cloudy
4:00 AM 51.8 °F 50.0 °F 94% 29.68 in 6.2 mi WNW 5.8 mph - N/A   Mostly Cloudy
4:30 AM 50.0 °F 50.0 °F 100% 29.68 in 6.2 mi WNW 4.6 mph - N/A   Scattered Clouds
5:00 AM 50.0 °F 48.2 °F 94% 29.68 in 6.2 mi West 3.5 mph - N/A   Partly Cloudy
5:30 AM 48.2 °F 48.2 °F 100% 29.68 in 6.2 mi NW 4.6 mph - N/A   Partly Cloudy
6:00 AM 48.2 °F 46.4 °F 93% 29.68 in 6.2 mi NW 3.5 mph - N/A   Partly Cloudy
6:30 AM 48.2 °F 48.2 °F 100% 29.68 in 6.2 mi NW 2.3 mph - N/A   Partly Cloudy
7:00 AM 51 °F 49 °F 89% 29.72 in 5 mi Calm Calm - -   Mist
7:00 AM 50.0 °F 48.2 °F 94% 29.71 in 5.0 mi Calm Calm - N/A   Scattered Clouds
7:30 AM 51.8 °F 50.0 °F 94% 29.71 in 5.0 mi NW 3.5 mph - N/A   Partly Cloudy
8:00 AM 53.6 °F 50.0 °F 88% 29.71 in 6.2 mi Calm Calm - N/A   Mostly Cloudy
8:30 AM 53.6 °F 50.0 °F 88% 29.71 in 6.2 mi ESE 2.3 mph - N/A   Mostly Cloudy
9:00 AM 55.4 °F 50.0 °F 82% 29.71 in 6.2 mi ESE 4.6 mph - N/A   Scattered Clouds
9:30 AM 57.2 °F 48.2 °F 72% 29.71 in 6.2 mi ESE 4.6 mph - N/A   Scattered Clouds
10:00 AM 57.2 °F 48.2 °F 72% 29.71 in 6.2 mi ESE 6.9 mph - N/A   Partly Cloudy
10:30 AM 59.0 °F 46.4 °F 63% 29.71 in 6.2 mi SE 5.8 mph - N/A   Partly Cloudy
11:00 AM 59.0 °F 46.4 °F 63% 29.68 in 6.2 mi SE 8.1 mph - N/A   Mostly Cloudy
11:30 AM 59.0 °F 46.4 °F 63% 29.68 in 6.2 mi ESE 6.9 mph - N/A   Mostly Cloudy
12:00 PM 59.0 °F 48.2 °F 67% 29.68 in 6.2 mi ESE 8.1 mph - N/A   Mostly Cloudy
12:30 PM 60.8 °F 48.2 °F 63% 29.65 in 6.2 mi East 10.4 mph - N/A   Mostly Cloudy
1:00 PM 61 °F 50 °F 57% 29.66 in 37 mi East 8.9 mph - -   Partly Cloudy
1:00 PM 60.8 °F 50.0 °F 68% 29.65 in 6.2 mi East 9.2 mph - N/A   Mostly Cloudy
1:30 PM 60.8 °F 48.2 °F 63% 29.62 in 6.2 mi ESE 10.4 mph - N/A   Mostly Cloudy
2:00 PM 60.8 °F 50.0 °F 68% 29.62 in 6.2 mi East 10.4 mph - N/A   Mostly Cloudy
2:30 PM 59.0 °F 51.8 °F 77% 29.62 in 5.0 mi ENE 9.2 mph - N/A Rain Light Rain
3:00 PM 57.2 °F 53.6 °F 88% 29.59 in 6.2 mi East 6.9 mph - N/A Rain Light Rain
3:30 PM 59.0 °F 53.6 °F 82% 29.59 in 6.2 mi ENE 8.1 mph - N/A Rain Light Rain
4:00 PM 57.2 °F 55.4 °F 94% 29.59 in 3.1 mi East 6.9 mph - N/A Rain Light Rain
4:30 PM 55.4 °F 55.4 °F 100% 29.59 in 3.7 mi ESE 8.1 mph - N/A Rain Light Rain
5:00 PM 57.2 °F 55.4 °F 94% 29.56 in 5.6 mi East 6.9 mph - N/A Rain Light Rain
5:30 PM 57.2 °F 55.4 °F 94% 29.56 in 2.8 mi ENE 6.9 mph - N/A Rain Light Rain
6:00 PM 57.2 °F 55.4 °F 94% 29.53 in 3.7 mi East 8.1 mph - N/A Rain Light Rain
6:30 PM 57.2 °F 55.4 °F 94% 29.53 in 3.1 mi East 8.1 mph - N/A   Light Drizzle
7:00 PM 56 °F 56 °F 98% 29.54 in 7 mi ENE 8.9 mph - - Rain Light Drizzle
7:00 PM 57.2 °F 55.4 °F 94% 29.53 in 6.2 mi ENE 9.2 mph - N/A   Light Drizzle
7:30 PM 57.2 °F 55.4 °F 94% 29.53 in 6.2 mi ENE 8.1 mph - N/A   Mostly Cloudy
8:00 PM 57.2 °F 55.4 °F 94% 29.53 in 6.2 mi NE 6.9 mph - N/A   Mostly Cloudy
8:30 PM 57.2 °F 55.4 °F 94% 29.53 in 6.2 mi NE 8.1 mph - N/A   Mostly Cloudy
9:00 PM 57.2 °F 55.4 °F 94% 29.53 in 6.2 mi NNE 6.9 mph - N/A   Mostly Cloudy
9:30 PM 57.2 °F 55.4 °F 94% 29.53 in 6.2 mi NNE 6.9 mph - N/A   Light Drizzle
10:00 PM 57.2 °F 55.4 °F 94% 29.53 in 5.6 mi NNE 8.1 mph - N/A   Light Drizzle
10:30 PM 55.4 °F 55.4 °F 100% 29.53 in 6.2 mi North 6.9 mph - N/A   Light Drizzle
11:00 PM 55.4 °F 55.4 °F 100% 29.53 in 6.2 mi North 8.1 mph - N/A   Mostly Cloudy
11:30 PM 55.4 °F 53.6 °F 94% 29.56 in 6.2 mi North 9.2 mph - N/A   Mostly Cloudy